| time (UTC) | temp C | wind direction | speed KPH | gust KPH | rain 1hr cm | rain 24hr cm | rain mn cm | humidity % | barometer mb |
| 20260901232508 | 20 | 226 | 3.2 | 11.3 | 0.00 | 0.03 | 0.03 | 72 | 1019.9 |
| 20260901232009 | 20 | 232 | 4.8 | 11.3 | 0.00 | 0.03 | 0.03 | 72 | 1020.0 |
| 20260901231510 | 20 | 213 | 4.8 | 11.3 | 0.00 | 0.03 | 0.03 | 72 | 1020.0 |
| 20260901231006 | 20 | 273 | 3.2 | 11.3 | 0.00 | 0.03 | 0.03 | 72 | 1020.0 |
| 20260901230505 | 20 | 254 | 3.2 | 8.0 | 0.00 | 0.03 | 0.03 | 72 | 1020.1 |
| 20260901230005 | 20 | 211 | 3.2 | 9.7 | 0.00 | 0.03 | 0.03 | 72 | 1020.0 |
| 20260901225500 | 20 | 166 | 3.2 | 9.7 | 0.00 | 0.03 | 0.03 | 71 | 1020.0 |
| 20260901224959 | 20 | 205 | 3.2 | 9.7 | 0.00 | 0.03 | 0.03 | 71 | 1020.0 |
| 20260901224458 | 20 | 259 | 3.2 | 9.7 | 0.00 | 0.03 | 0.03 | 72 | 1020.0 |
| 20260901223958 | 20 | 242 | 3.2 | 8.0 | 0.00 | 0.03 | 0.03 | 72 | 1020.0 |
| 20260901223459 | 20 | 191 | 4.8 | 11.3 | 0.00 | 0.03 | 0.03 | 72 | 1020.0 |
| 20260901223000 | 20 | 217 | 4.8 | 11.3 | 0.00 | 0.03 | 0.03 | 72 | 1020.1 |
| 20260901222453 | 20 | 163 | 4.8 | 11.3 | 0.00 | 0.03 | 0.03 | 71 | 1020.1 |
| 20260901221953 | 20 | 249 | 4.8 | 11.3 | 0.00 | 0.03 | 0.03 | 71 | 1020.1 |
| 20260901221453 | 20 | 188 | 4.8 | 9.7 | 0.00 | 0.03 | 0.03 | 71 | 1020.1 |
| 20260901220952 | 20 | 207 | 3.2 | 9.7 | 0.00 | 0.03 | 0.03 | 71 | 1020.1 |
| 20260901220453 | 20 | 215 | 4.8 | 16.1 | 0.00 | 0.03 | 0.03 | 71 | 1020.0 |
| 20260901215954 | 20 | 167 | 4.8 | 16.1 | 0.00 | 0.03 | 0.03 | 71 | 1020.0 |
| 20260901215448 | 20 | 209 | 3.2 | 9.7 | 0.00 | 0.03 | 0.03 | 72 | 1020.0 |
| 20260901214946 | 19 | 212 | 3.2 | 12.9 | 0.00 | 0.03 | 0.03 | 72 | 1020.0 |
| 20260901214446 | 19 | 148 | 3.2 | 12.9 | 0.00 | 0.03 | 0.03 | 72 | 1019.9 |
| 20260901213948 | 19 | 215 | 4.8 | 12.9 | 0.00 | 0.03 | 0.03 | 72 | 1019.9 |
| 20260901213447 | 19 | 246 | 4.8 | 12.9 | 0.00 | 0.03 | 0.03 | 73 | 1019.9 |
| 20260901212948 | 19 | 196 | 3.2 | 12.9 | 0.00 | 0.03 | 0.03 | 73 | 1019.8 |
| 20260901212445 | 19 | 163 | 3.2 | 14.5 | 0.00 | 0.03 | 0.03 | 72 | 1019.9 |
| 20260901211943 | 19 | 216 | 4.8 | 14.5 | 0.00 | 0.03 | 0.03 | 73 | 1019.9 |
| 20260901211440 | 19 | 155 | 6.4 | 16.1 | 0.00 | 0.03 | 0.03 | 72 | 1020.0 |
| 20260901210940 | 20 | 152 | 4.8 | 16.1 | 0.00 | 0.03 | 0.03 | 72 | 1020.0 |
| 20260901210438 | 20 | 182 | 3.2 | 12.9 | 0.00 | 0.03 | 0.03 | 72 | 1020.0 |
| 20260901205940 | 20 | 166 | 4.8 | 11.3 | 0.00 | 0.03 | 0.03 | 72 | 1019.8 |
| 20260901205437 | 20 | 175 | 3.2 | 11.3 | 0.00 | 0.03 | 0.03 | 71 | 1019.9 |
| 20260901204937 | 20 | 182 | 3.2 | 14.5 | 0.00 | 0.03 | 0.03 | 71 | 1019.9 |
| 20260901204438 | 20 | 177 | 4.8 | 14.5 | 0.00 | 0.03 | 0.03 | 71 | 1019.9 |
| 20260901203934 | 20 | 232 | 4.8 | 12.9 | 0.00 | 0.03 | 0.03 | 70 | 1019.9 |
| 20260901203436 | 20 | 155 | 4.8 | 11.3 | 0.00 | 0.03 | 0.03 | 70 | 1019.9 |
| 20260901202934 | 20 | 161 | 4.8 | 17.7 | 0.00 | 0.03 | 0.03 | 69 | 1019.9 |
| 20260901202436 | 20 | 193 | 6.4 | 17.7 | 0.00 | 0.03 | 0.03 | 70 | 1020.0 |
| 20260901201932 | 20 | 263 | 4.8 | 14.5 | 0.00 | 0.03 | 0.03 | 71 | 1020.1 |
| 20260901201430 | 20 | 162 | 4.8 | 14.5 | 0.00 | 0.03 | 0.03 | 72 | 1020.0 |
| 20260901200932 | 20 | 212 | 4.8 | 12.9 | 0.00 | 0.03 | 0.03 | 73 | 1020.0 |
| 20260901200431 | 19 | 189 | 4.8 | 12.9 | 0.00 | 0.03 | 0.03 | 75 | 1020.0 |
| 20260901195930 | 19 | 194 | 3.2 | 9.7 | 0.00 | 0.03 | 0.03 | 77 | 1020.0 |
| 20260901195431 | 19 | 172 | 1.6 | 9.7 | 0.00 | 0.03 | 0.03 | 78 | 1020.1 |
| 20260901194932 | 19 | 168 | 1.6 | 9.7 | 0.00 | 0.03 | 0.03 | 77 | 1020.1 |
| 20260901194429 | 19 | 162 | 1.6 | 9.7 | 0.00 | 0.03 | 0.03 | 78 | 1020.2 |
| 20260901193928 | 19 | 175 | 1.6 | 9.7 | 0.00 | 0.03 | 0.03 | 78 | 1020.3 |
| 20260901193429 | 19 | 173 | 3.2 | 12.9 | 0.00 | 0.03 | 0.03 | 78 | 1020.3 |
| 20260901192929 | 19 | 197 | 4.8 | 12.9 | 0.00 | 0.03 | 0.03 | 78 | 1020.3 |
| 20260901192430 | 19 | 167 | 3.2 | 11.3 | 0.00 | 0.03 | 0.03 | 78 | 1020.4 |
| 20260901191928 | 19 | 133 | 3.2 | 12.9 | 0.03 | 0.03 | 0.03 | 78 | 1020.5 |
| 20260901191429 | 19 | 123 | 3.2 | 12.9 | 0.03 | 0.03 | 0.03 | 79 | 1020.5 |
| 20260901190929 | 19 | 147 | 3.2 | 17.7 | 0.03 | 0.03 | 0.03 | 80 | 1020.5 |
| 20260901190428 | 19 | 138 | 3.2 | 17.7 | 0.03 | 0.03 | 0.03 | 81 | 1020.7 |
| 20260901185930 | 18 | 180 | 4.8 | 12.9 | 0.03 | 0.03 | 0.03 | 83 | 1020.6 |
| 20260901185423 | 18 | 206 | 4.8 | 12.9 | 0.03 | 0.03 | 0.03 | 83 | 1020.7 |
| 20260901184919 | 18 | 185 | 4.8 | 11.3 | 0.03 | 0.03 | 0.03 | 83 | 1020.8 |
| 20260901184418 | 18 | 129 | 3.2 | 11.3 | 0.03 | 0.03 | 0.03 | 85 | 1020.8 |
| 20260901183918 | 17 | 134 | 3.2 | 12.9 | 0.03 | 0.03 | 0.03 | 85 | 1020.7 |
| 20260901183418 | 17 | 161 | 4.8 | 12.9 | 0.03 | 0.03 | 0.03 | 84 | 1020.8 |
| 20260901182919 | 17 | 161 | 4.8 | 11.3 | 0.03 | 0.03 | 0.03 | 84 | 1020.8 |
| 20260901182419 | 17 | 209 | 4.8 | 12.9 | 0.03 | 0.03 | 0.03 | 84 | 1020.9 |
| 20260901181915 | 17 | 158 | 4.8 | 12.9 | 0.00 | 0.00 | 0.00 | 84 | 1020.9 |
| 20260901181414 | 17 | 192 | 4.8 | 12.9 | 0.00 | 0.00 | 0.00 | 83 | 1020.9 |
| 20260901180914 | 17 | 180 | 4.8 | 12.9 | 0.00 | 0.00 | 0.00 | 82 | 1020.8 |
| 20260901180415 | 17 | 189 | 3.2 | 12.9 | 0.00 | 0.00 | 0.00 | 82 | 1020.9 |
| 20260901175915 | 18 | 142 | 3.2 | 11.3 | 0.00 | 0.00 | 0.00 | 82 | 1020.9 |
| 20260901175415 | 18 | 199 | 4.8 | 14.5 | 0.00 | 0.00 | 0.00 | 82 | 1020.9 |
| 20260901174911 | 17 | 161 | 3.2 | 14.5 | 0.00 | 0.00 | 0.00 | 83 | 1021.0 |
| 20260901174412 | 17 | 171 | 3.2 | 11.3 | 0.00 | 0.00 | 0.00 | 84 | 1020.9 |
| 20260901173910 | 17 | 159 | 4.8 | 9.7 | 0.00 | 0.00 | 0.00 | 85 | 1020.8 |
| 20260901173411 | 17 | 166 | 4.8 | 17.7 | 0.00 | 0.00 | 0.00 | 84 | 1020.8 |
| 20260901172910 | 17 | 155 | 4.8 | 17.7 | 0.00 | 0.00 | 0.00 | 84 | 1020.8 |
| 20260901172412 | 17 | 230 | 4.8 | 12.9 | 0.00 | 0.00 | 0.00 | 85 | 1020.8 |
| 20260901171910 | 17 | 144 | 4.8 | 12.9 | 0.00 | 0.00 | 0.00 | 85 | 1020.7 |
| 20260901171410 | 17 | 206 | 3.2 | 11.3 | 0.00 | 0.00 | 0.00 | 85 | 1020.7 |
| 20260901170911 | 17 | 162 | 3.2 | 12.9 | 0.00 | 0.00 | 0.00 | 86 | 1020.6 |
| 20260901170407 | 17 | 222 | 3.2 | 12.9 | 0.00 | 0.00 | 0.00 | 86 | 1020.6 |
| 20260901165904 | 16 | 167 | 4.8 | 12.9 | 0.00 | 0.00 | 0.00 | 87 | 1020.8 |
| 20260901165403 | 16 | 178 | 3.2 | 12.9 | 0.00 | 0.00 | 0.00 | 87 | 1020.7 |
| 20260901164902 | 16 | 153 | 1.6 | 6.4 | 0.00 | 0.00 | 0.00 | 88 | 1020.7 |
| 20260901164402 | 16 | 157 | 1.6 | 4.8 | 0.00 | 0.00 | 0.00 | 89 | 1020.7 |
| 20260901163902 | 15 | 157 | 1.6 | 8.0 | 0.00 | 0.00 | 0.00 | 89 | 1020.8 |
| 20260901163358 | 15 | 159 | 1.6 | 8.0 | 0.00 | 0.00 | 0.00 | 89 | 1020.9 |
| 20260901162858 | 15 | 205 | 1.6 | 6.4 | 0.00 | 0.00 | 0.00 | 89 | 1020.9 |
| 20260901162356 | 15 | 146 | 1.6 | 6.4 | 0.00 | 0.00 | 0.00 | 89 | 1021.0 |
| 20260901161856 | 15 | 166 | 1.6 | 6.4 | 0.00 | 0.00 | 0.00 | 89 | 1021.0 |
| 20260901161356 | 15 | 168 | 1.6 | 6.4 | 0.00 | 0.00 | 0.00 | 89 | 1021.2 |
| 20260901160857 | 15 | 163 | 3.2 | 8.0 | 0.00 | 0.00 | 0.00 | 89 | 1021.2 |
| 20260901160351 | 15 | 175 | 3.2 | 9.7 | 0.00 | 0.00 | 0.00 | 89 | 1021.1 |
| 20260901155850 | 15 | 170 | 3.2 | 9.7 | 0.00 | 0.00 | 0.00 | 89 | 1021.1 |
| 20260901155350 | 15 | 200 | 1.6 | 8.0 | 0.00 | 0.00 | 0.00 | 89 | 1021.0 |
| 20260901154850 | 15 | 169 | 1.6 | 6.4 | 0.00 | 0.00 | 0.00 | 88 | 1021.1 |
| 20260901154350 | 15 | 155 | 1.6 | 9.7 | 0.00 | 0.00 | 0.00 | 88 | 1021.1 |
| 20260901153850 | 15 | 154 | 3.2 | 9.7 | 0.00 | 0.00 | 0.00 | 88 | 1021.1 |
| 20260901153344 | 15 | 165 | 1.6 | 8.0 | 0.00 | 0.00 | 0.00 | 88 | 1021.0 |
| 20260901152844 | 15 | 161 | 3.2 | 8.0 | 0.00 | 0.00 | 0.00 | 87 | 1021.1 |
| 20260901152344 | 15 | 132 | 3.2 | 12.9 | 0.00 | 0.00 | 0.00 | 87 | 1020.9 |
| 20260901151844 | 15 | 142 | 4.8 | 17.7 | 0.00 | 0.00 | 0.00 | 87 | 1021.0 |
| 20260901151344 | 15 | 171 | 4.8 | 17.7 | 0.00 | 0.00 | 0.00 | 86 | 1020.9 |
| 20260901150844 | 15 | 158 | 4.8 | 12.9 | 0.00 | 0.00 | 0.00 | 86 | 1020.9 |
| 20260901150340 | 15 | 153 | 3.2 | 12.9 | 0.00 | 0.00 | 0.00 | 86 | 1020.7 |
| 20260901145839 | 15 | 158 | 3.2 | 11.3 | 0.00 | 0.00 | 0.00 | 86 | 1020.6 |
| 20260901145341 | 15 | 174 | 3.2 | 9.7 | 0.00 | 0.00 | 0.00 | 86 | 1020.7 |
| 20260901144840 | 15 | 142 | 3.2 | 9.7 | 0.00 | 0.00 | 0.00 | 85 | 1020.6 |
| 20260901144338 | 15 | 157 | 3.2 | 8.0 | 0.00 | 0.00 | 0.00 | 85 | 1020.6 |
| 20260901143837 | 15 | 136 | 3.2 | 8.0 | 0.00 | 0.00 | 0.00 | 85 | 1020.5 |
| 20260901143336 | 15 | 154 | 3.2 | 9.7 | 0.00 | 0.00 | 0.00 | 86 | 1020.5 |
| 20260901142834 | 15 | 188 | 3.2 | 9.7 | 0.00 | 0.00 | 0.00 | 85 | 1020.5 |
| 20260901142335 | 15 | 192 | 3.2 | 9.7 | 0.00 | 0.00 | 0.00 | 85 | 1020.6 |
| 20260901141834 | 15 | 138 | 3.2 | 9.7 | 0.00 | 0.00 | 0.00 | 85 | 1020.5 |
| 20260901141332 | 15 | 155 | 3.2 | 9.7 | 0.00 | 0.00 | 0.00 | 85 | 1020.5 |
| 20260901140833 | 15 | 172 | 1.6 | 9.7 | 0.00 | 0.00 | 0.00 | 85 | 1020.4 |
| 20260901140328 | 15 | 117 | 1.6 | 6.4 | 0.00 | 0.00 | 0.00 | 85 | 1020.3 |
| 20260901135826 | 15 | 117 | 3.2 | 8.0 | 0.00 | 0.00 | 0.00 | 85 | 1020.2 |
| 20260901135326 | 15 | 119 | 1.6 | 8.0 | 0.00 | 0.00 | 0.00 | 85 | 1020.3 |
| 20260901134826 | 15 | 157 | 1.6 | 8.0 | 0.00 | 0.00 | 0.00 | 85 | 1020.3 |
| 20260901134325 | 15 | 167 | 3.2 | 8.0 | 0.00 | 0.00 | 0.00 | 85 | 1020.1 |
| 20260901133827 | 15 | 144 | 1.6 | 8.0 | 0.00 | 0.00 | 0.00 | 86 | 1020.1 |
| 20260901133321 | 15 | 153 | 1.6 | 6.4 | 0.00 | 0.00 | 0.00 | 86 | 1020.2 |
| 20260901132820 | 15 | 161 | 1.6 | 6.4 | 0.00 | 0.00 | 0.00 | 86 | 1020.1 |
| 20260901132319 | 15 | 162 | 1.6 | 6.4 | 0.00 | 0.00 | 0.00 | 86 | 1020.3 |
| 20260901131820 | 15 | 163 | 1.6 | 6.4 | 0.00 | 0.00 | 0.00 | 86 | 1020.2 |
| 20260901131320 | 15 | 162 | 1.6 | 6.4 | 0.00 | 0.00 | 0.00 | 86 | 1020.2 |
| 20260901130820 | 15 | 161 | 1.6 | 8.0 | 0.00 | 0.00 | 0.00 | 86 | 1020.2 |
| 20260901130317 | 15 | 152 | 1.6 | 8.0 | 0.00 | 0.00 | 0.00 | 86 | 1020.2 |
| 20260901125816 | 15 | 157 | 1.6 | 6.4 | 0.00 | 0.00 | 0.00 | 86 | 1020.2 |
| 20260901125314 | 15 | 159 | 1.6 | 6.4 | 0.00 | 0.00 | 0.00 | 86 | 1020.2 |
| 20260901124813 | 15 | 159 | 1.6 | 8.0 | 0.00 | 0.00 | 0.00 | 86 | 1020.2 |
| 20260901124314 | 15 | 160 | 1.6 | 8.0 | 0.00 | 0.00 | 0.00 | 86 | 1020.1 |
| 20260901123814 | 15 | 171 | 1.6 | 6.4 | 0.00 | 0.00 | 0.00 | 86 | 1020.1 |
| 20260901123310 | 15 | 171 | 1.6 | 8.0 | 0.00 | 0.00 | 0.00 | 86 | 1020.1 |
| 20260901122810 | 15 | 163 | 3.2 | 8.0 | 0.00 | 0.00 | 0.00 | 86 | 1020.2 |
| 20260901122308 | 15 | 160 | 1.6 | 8.0 | 0.00 | 0.00 | 0.00 | 86 | 1020.1 |
| 20260901121808 | 15 | 159 | 1.6 | 6.4 | 0.00 | 0.00 | 0.00 | 86 | 1020.3 |
| 20260901121307 | 15 | 161 | 1.6 | 6.4 | 0.00 | 0.00 | 0.00 | 87 | 1020.2 |
| 20260901120808 | 15 | 157 | 3.2 | 9.7 | 0.00 | 0.00 | 0.00 | 87 | 1020.2 |
| 20260901120304 | 15 | 143 | 1.6 | 9.7 | 0.00 | 0.00 | 0.00 | 87 | 1020.1 |
| 20260901115804 | 15 | 134 | 1.6 | 8.0 | 0.00 | 0.00 | 0.00 | 87 | 1020.1 |
| 20260901115306 | 15 | 178 | 0.0 | 3.2 | 0.00 | 0.00 | 0.00 | 87 | 1020.1 |
| 20260901114804 | 14 | 179 | 0.0 | 3.2 | 0.00 | 0.00 | 0.00 | 87 | 1020.2 |
| 20260901114301 | 14 | 184 | 0.0 | 1.6 | 0.00 | 0.00 | 0.00 | 87 | 1020.2 |
| 20260901113802 | 14 | 184 | 0.0 | 1.6 | 0.00 | 0.00 | 0.00 | 87 | 1020.2 |
| 20260901113259 | 14 | 184 | 0.0 | 1.6 | 0.00 | 0.00 | 0.00 | 87 | 1020.2 |
| 20260901112757 | 14 | 184 | 0.0 | 1.6 | 0.00 | 0.00 | 0.00 | 87 | 1020.1 |
| 20260901112259 | 14 | 183 | 0.0 | 1.6 | 0.00 | 0.00 | 0.00 | 87 | 1020.1 |
| 20260901111757 | 14 | 184 | 0.0 | 1.6 | 0.00 | 0.00 | 0.00 | 87 | 1020.1 |
| 20260901111255 | 14 | 183 | 0.0 | 1.6 | 0.00 | 0.00 | 0.00 | 87 | 1020.0 |
| 20260901110757 | 14 | 184 | 0.0 | 3.2 | 0.00 | 0.00 | 0.00 | 87 | 1020.1 |
| 20260901110255 | 14 | 184 | 0.0 | 3.2 | 0.00 | 0.00 | 0.00 | 87 | 1020.0 |
| 20260901105752 | 14 | 183 | 0.0 | 1.6 | 0.00 | 0.00 | 0.00 | 88 | 1020.1 |
| 20260901105249 | 14 | 184 | 0.0 | 1.6 | 0.00 | 0.00 | 0.00 | 88 | 1020.0 |
| 20260901104751 | 14 | 183 | 0.0 | 3.2 | 0.00 | 0.00 | 0.00 | 88 | 1020.0 |
| 20260901104250 | 13 | 183 | 0.0 | 3.2 | 0.00 | 0.00 | 0.00 | 88 | 1020.0 |
| 20260901103751 | 13 | 184 | 0.0 | 3.2 | 0.00 | 0.00 | 0.00 | 88 | 1020.0 |
| 20260901103247 | 13 | 184 | 0.0 | 3.2 | 0.00 | 0.00 | 0.00 | 88 | 1019.9 |
| 20260901102746 | 13 | 186 | 0.0 | 4.8 | 0.00 | 0.00 | 0.00 | 88 | 1019.9 |
| 20260901102247 | 13 | 186 | 0.0 | 4.8 | 0.00 | 0.00 | 0.00 | 88 | 1019.8 |
| 20260901101746 | 13 | 188 | 0.0 | 1.6 | 0.00 | 0.00 | 0.00 | 88 | 1019.9 |
| 20260901101244 | 13 | 188 | 0.0 | 3.2 | 0.00 | 0.00 | 0.00 | 88 | 1019.9 |
| 20260901100743 | 13 | 188 | 0.0 | 3.2 | 0.00 | 0.00 | 0.00 | 88 | 1019.9 |
| 20260901100240 | 13 | 188 | 0.0 | 3.2 | 0.00 | 0.00 | 0.00 | 88 | 1019.9 |
| 20260901095739 | 13 | 190 | 0.0 | 3.2 | 0.00 | 0.00 | 0.00 | 88 | 1020.0 |
| 20260901095240 | 13 | 190 | 0.0 | 0.0 | 0.00 | 0.00 | 0.00 | 87 | 1019.9 |
| 20260901094746 | 13 | 190 | 0.0 | 0.0 | 0.00 | 0.00 | 0.00 | 87 | 1019.9 |
| 20260901094239 | 13 | 190 | 0.0 | 1.6 | 0.00 | 0.00 | 0.00 | 87 | 1020.0 |
| 20260901093741 | 13 | 190 | 0.0 | 1.6 | 0.00 | 0.00 | 0.00 | 87 | 1020.0 |
| 20260901093241 | 13 | 190 | 0.0 | 1.6 | 0.00 | 0.00 | 0.00 | 87 | 1020.1 |
| 20260901092735 | 13 | 190 | 0.0 | 3.2 | 0.00 | 0.00 | 0.00 | 87 | 1020.1 |
| 20260901092231 | 14 | 190 | 0.0 | 3.2 | 0.00 | 0.00 | 0.00 | 87 | 1020.0 |
| 20260901091725 | 14 | 190 | 0.0 | 1.6 | 0.00 | 0.00 | 0.00 | 87 | 1020.0 |
| 20260901091224 | 14 | 189 | 0.0 | 3.2 | 0.00 | 0.00 | 0.00 | 87 | 1019.9 |
| 20260901090724 | 14 | 190 | 0.0 | 4.8 | 0.00 | 0.00 | 0.00 | 87 | 1019.8 |
| 20260901090223 | 14 | 169 | 1.6 | 6.4 | 0.00 | 0.00 | 0.00 | 87 | 1019.7 |
| 20260901085722 | 14 | 168 | 1.6 | 8.0 | 0.00 | 0.00 | 0.00 | 87 | 1019.6 |
| 20260901085221 | 14 | 167 | 1.6 | 8.0 | 0.00 | 0.00 | 0.00 | 86 | 1019.6 |
| 20260901084723 | 14 | 173 | 1.6 | 8.0 | 0.00 | 0.00 | 0.00 | 86 | 1019.6 |
| 20260901084217 | 14 | 173 | 1.6 | 8.0 | 0.00 | 0.00 | 0.00 | 86 | 1019.6 |
| 20260901083718 | 14 | 160 | 1.6 | 8.0 | 0.00 | 0.00 | 0.00 | 86 | 1019.5 |
| 20260901083218 | 14 | 158 | 0.0 | 8.0 | 0.00 | 0.00 | 0.00 | 86 | 1019.6 |
| 20260901082717 | 15 | 176 | 0.0 | 3.2 | 0.00 | 0.00 | 0.00 | 86 | 1019.7 |
| 20260901082218 | 15 | 176 | 0.0 | 3.2 | 0.00 | 0.00 | 0.00 | 86 | 1019.6 |
| 20260901081718 | 15 | 175 | 0.0 | 4.8 | 0.00 | 0.00 | 0.00 | 86 | 1019.5 |
| 20260901081214 | 15 | 175 | 1.6 | 6.4 | 0.00 | 0.00 | 0.00 | 86 | 1019.5 |
| 20260901080713 | 15 | 175 | 1.6 | 6.4 | 0.00 | 0.00 | 0.00 | 85 | 1019.6 |
| 20260901080213 | 15 | 173 | 1.6 | 8.0 | 0.00 | 0.00 | 0.00 | 85 | 1019.6 |
| 20260901075714 | 15 | 185 | 1.6 | 8.0 | 0.00 | 0.00 | 0.00 | 85 | 1019.5 |
| 20260901075215 | 15 | 155 | 3.2 | 8.0 | 0.00 | 0.00 | 0.00 | 85 | 1019.5 |
| 20260901074714 | 15 | 171 | 1.6 | 8.0 | 0.00 | 0.00 | 0.00 | 85 | 1019.5 |
| 20260901074209 | 15 | 200 | 1.6 | 8.0 | 0.00 | 0.00 | 0.00 | 85 | 1019.5 |
| 20260901073711 | 15 | 173 | 3.2 | 8.0 | 0.00 | 0.00 | 0.00 | 85 | 1019.5 |
| 20260901073209 | 15 | 166 | 1.6 | 6.4 | 0.00 | 0.00 | 0.00 | 85 | 1019.4 |
| 20260901072709 | 15 | 154 | 1.6 | 6.4 | 0.00 | 0.00 | 0.00 | 85 | 1019.4 |
| 20260901072209 | 15 | 158 | 1.6 | 4.8 | 0.00 | 0.00 | 0.00 | 85 | 1019.4 |
| 20260901071711 | 15 | 160 | 1.6 | 6.4 | 0.00 | 0.00 | 0.00 | 84 | 1019.4 |
| 20260901071206 | 15 | 160 | 1.6 | 8.0 | 0.00 | 0.00 | 0.00 | 84 | 1019.4 |
| 20260901070703 | 15 | 165 | 3.2 | 11.3 | 0.00 | 0.00 | 0.00 | 84 | 1019.4 |
| 20260901070204 | 15 | 176 | 3.2 | 11.3 | 0.00 | 0.00 | 0.00 | 84 | 1019.3 |
| 20260901065701 | 15 | 160 | 3.2 | 8.0 | 0.00 | 0.00 | 0.00 | 84 | 1019.3 |
| 20260901065200 | 15 | 234 | 3.2 | 8.0 | 0.00 | 0.00 | 0.00 | 84 | 1019.3 |
| 20260901064701 | 15 | 166 | 3.2 | 8.0 | 0.00 | 0.00 | 0.00 | 84 | 1019.2 |
| 20260901064153 | 15 | 157 | 1.6 | 4.8 | 0.00 | 0.00 | 0.00 | 84 | 1019.1 |
| 20260901063655 | 15 | 152 | 1.6 | 8.0 | 0.00 | 0.00 | 0.00 | 83 | 1019.0 |
| 20260901063153 | 15 | 153 | 1.6 | 8.0 | 0.00 | 0.00 | 0.00 | 83 | 1019.0 |
| 20260901062652 | 16 | 167 | 1.6 | 8.0 | 0.00 | 0.00 | 0.00 | 83 | 1019.0 |
| 20260901062151 | 16 | 231 | 0.0 | 3.2 | 0.00 | 0.00 | 0.00 | 82 | 1018.9 |
| 20260901061652 | 16 | 231 | 0.0 | 1.6 | 0.00 | 0.00 | 0.00 | 82 | 1018.9 |
| 20260901061152 | 16 | 232 | 1.6 | 3.2 | 0.00 | 0.00 | 0.00 | 82 | 1018.9 |
| 20260901060648 | 16 | 232 | 1.6 | 6.4 | 0.00 | 0.00 | 0.00 | 82 | 1018.9 |
| 20260901060148 | 16 | 231 | 1.6 | 8.0 | 0.00 | 0.00 | 0.00 | 82 | 1018.7 |
| 20260901055647 | 16 | 223 | 1.6 | 8.0 | 0.00 | 0.00 | 0.00 | 81 | 1018.7 |
| 20260901055148 | 16 | 219 | 1.6 | 6.4 | 0.00 | 0.00 | 0.00 | 81 | 1018.8 |
| 20260901054647 | 16 | 254 | 3.2 | 8.0 | 0.00 | 0.00 | 0.00 | 81 | 1018.7 |
| 20260901054149 | 16 | 215 | 3.2 | 8.0 | 0.00 | 0.00 | 0.00 | 81 | 1018.5 |
| 20260901053643 | 17 | 243 | 3.2 | 6.4 | 0.00 | 0.00 | 0.00 | 80 | 1018.4 |
| 20260901053145 | 17 | 182 | 1.6 | 6.4 | 0.00 | 0.00 | 0.00 | 80 | 1018.5 |
| 20260901052644 | 17 | 186 | 3.2 | 8.0 | 0.00 | 0.00 | 0.00 | 79 | 1018.4 |
| 20260901052144 | 17 | 208 | 3.2 | 8.0 | 0.00 | 0.00 | 0.00 | 78 | 1018.3 |
| 20260901051643 | 17 | 225 | 3.2 | 8.0 | 0.00 | 0.00 | 0.00 | 77 | 1018.3 |
| 20260901051145 | 17 | 163 | 3.2 | 9.7 | 0.00 | 0.00 | 0.00 | 77 | 1018.2 |
| 20260901050639 | 17 | 179 | 3.2 | 9.7 | 0.00 | 0.00 | 0.00 | 76 | 1018.2 |
| 20260901050139 | 17 | 258 | 3.2 | 9.7 | 0.00 | 0.00 | 0.00 | 75 | 1018.1 |
| 20260901045639 | 18 | 217 | 3.2 | 9.7 | 0.00 | 0.00 | 0.00 | 74 | 1017.9 |
| 20260901045139 | 18 | 205 | 3.2 | 8.0 | 0.00 | 0.00 | 0.00 | 73 | 1018.0 |
| 20260901044639 | 18 | 214 | 3.2 | 9.7 | 0.00 | 0.00 | 0.00 | 72 | 1018.0 |
| 20260901044137 | 18 | 194 | 3.2 | 9.7 | 0.00 | 0.00 | 0.00 | 71 | 1017.8 |
| 20260901043637 | 18 | 192 | 3.2 | 9.7 | 0.00 | 0.00 | 0.00 | 70 | 1017.8 |
| 20260901043138 | 19 | 171 | 3.2 | 9.7 | 0.00 | 0.00 | 0.00 | 69 | 1017.8 |
| 20260901042635 | 19 | 210 | 1.6 | 6.4 | 0.00 | 0.00 | 0.00 | 69 | 1017.7 |
| 20260901042133 | 20 | 227 | 3.2 | 11.3 | 0.00 | 0.00 | 0.00 | 68 | 1017.6 |
| 20260901041632 | 20 | 240 | 4.8 | 14.5 | 0.00 | 0.00 | 0.00 | 67 | 1017.4 |
| 20260901041131 | 20 | 255 | 4.8 | 14.5 | 0.00 | 0.00 | 0.00 | 67 | 1017.3 |
| 20260901040629 | 20 | 263 | 4.8 | 14.5 | 0.00 | 0.00 | 0.00 | 66 | 1017.2 |
| 20260901040127 | 20 | 275 | 3.2 | 9.7 | 0.00 | 0.00 | 0.00 | 66 | 1017.1 |
| 20260901035628 | 20 | 242 | 3.2 | 9.7 | 0.00 | 0.00 | 0.00 | 65 | 1017.1 |
| 20260901035127 | 20 | 212 | 4.8 | 11.3 | 0.00 | 0.00 | 0.00 | 64 | 1017.0 |
| 20260901034628 | 21 | 219 | 3.2 | 11.3 | 0.00 | 0.00 | 0.00 | 64 | 1017.0 |
| 20260901034123 | 21 | 232 | 3.2 | 9.7 | 0.00 | 0.00 | 0.00 | 63 | 1016.8 |
| 20260901033623 | 21 | 267 | 3.2 | 11.3 | 0.00 | 0.00 | 0.00 | 62 | 1016.7 |
| 20260901033121 | 21 | 260 | 4.8 | 11.3 | 0.00 | 0.00 | 0.00 | 62 | 1016.6 |
| 20260901032622 | 21 | 236 | 3.2 | 11.3 | 0.00 | 0.00 | 0.00 | 61 | 1016.5 |
| 20260901032121 | 21 | 275 | 3.2 | 8.0 | 0.00 | 0.00 | 0.00 | 61 | 1016.4 |
| 20260901031622 | 22 | 209 | 4.8 | 12.9 | 0.00 | 0.00 | 0.00 | 60 | 1016.3 |
| 20260901031117 | 22 | 250 | 4.8 | 12.9 | 0.00 | 0.00 | 0.00 | 59 | 1016.2 |
| 20260901030617 | 22 | 254 | 3.2 | 11.3 | 0.00 | 0.00 | 0.00 | 60 | 1016.2 |
| 20260901030115 | 22 | 277 | 3.2 | 11.3 | 0.00 | 0.00 | 0.00 | 59 | 1016.2 |
| 20260901025615 | 23 | 292 | 3.2 | 9.7 | 0.00 | 0.00 | 0.00 | 58 | 1016.1 |
| 20260901025115 | 23 | 305 | 3.2 | 9.7 | 0.00 | 0.00 | 0.00 | 58 | 1016.1 |
| 20260901024616 | 23 | 266 | 3.2 | 9.7 | 0.00 | 0.00 | 0.00 | 57 | 1016.1 |
| 20260901024113 | 23 | 277 | 3.2 | 6.4 | 0.00 | 0.00 | 0.00 | 57 | 1016.0 |
| 20260901023611 | 23 | 279 | 3.2 | 6.4 | 0.00 | 0.00 | 0.00 | 56 | 1016.0 |
| 20260901023112 | 24 | 283 | 3.2 | 6.4 | 0.00 | 0.00 | 0.00 | 55 | 1015.9 |
| 20260901022611 | 24 | 286 | 3.2 | 9.7 | 0.00 | 0.00 | 0.00 | 55 | 1016.0 |
| 20260901022114 | 24 | 279 | 6.4 | 17.7 | 0.00 | 0.00 | 0.00 | 54 | 1015.9 |
| 20260901021610 | 24 | 299 | 8.0 | 17.7 | 0.00 | 0.00 | 0.00 | 54 | 1016.0 |
| 20260901021107 | 25 | 252 | 6.4 | 16.1 | 0.00 | 0.00 | 0.00 | 54 | 1016.0 |
| 20260901020607 | 25 | 236 | 4.8 | 12.9 | 0.00 | 0.00 | 0.00 | 54 | 1015.9 |
| 20260901020108 | 25 | 243 | 6.4 | 19.3 | 0.00 | 0.00 | 0.00 | 53 | 1015.8 |
| 20260901015605 | 26 | 238 | 6.4 | 19.3 | 0.00 | 0.00 | 0.00 | 52 | 1015.7 |
| 20260901015103 | 26 | 268 | 4.8 | 11.3 | 0.00 | 0.00 | 0.00 | 52 | 1015.7 |
| 20260901014604 | 26 | 263 | 4.8 | 12.9 | 0.00 | 0.00 | 0.00 | 51 | 1015.7 |
| 20260901014058 | 27 | 0 | 6.4 | 16.1 | 0.00 | 0.00 | 0.00 | 50 | 1015.5 |
| 20260901013557 | 27 | 346 | 8.0 | 16.1 | 0.00 | 0.00 | 0.00 | 49 | 1015.6 |
| 20260901013057 | 28 | 305 | 8.0 | 17.7 | 0.00 | 0.00 | 0.00 | 48 | 1015.5 |
| 20260901012557 | 29 | 255 | 4.8 | 17.7 | 0.00 | 0.00 | 0.00 | 46 | 1015.6 |
| 20260901012057 | 30 | 257 | 4.8 | 14.5 | 0.00 | 0.00 | 0.00 | 45 | 1015.6 |
| 20260901011558 | 30 | 216 | 4.8 | 9.7 | 0.00 | 0.00 | 0.00 | 43 | 1015.5 |
| 20260901011053 | 31 | 250 | 3.2 | 9.7 | 0.00 | 0.00 | 0.00 | 41 | 1015.5 |
| 20260901010553 | 31 | 246 | 1.6 | 6.4 | 0.00 | 0.00 | 0.00 | 40 | 1015.6 |
| 20260901010054 | 31 | 241 | 1.6 | 6.4 | 0.00 | 0.00 | 0.00 | 40 | 1015.6 |
| 20260901005553 | 31 | 269 | 1.6 | 6.4 | 0.00 | 0.00 | 0.00 | 39 | 1015.6 |
| 20260901005051 | 30 | 144 | 1.6 | 6.4 | 0.00 | 0.00 | 0.00 | 41 | 1015.6 |
| 20260901004551 | 30 | 121 | 0.0 | 4.8 | 0.00 | 0.00 | 0.00 | 39 | 1015.7 |
| 20260901004045 | 30 | 194 | 0.0 | 3.2 | 0.00 | 0.00 | 0.00 | 40 | 1015.7 |
| 20260901003545 | 30 | 265 | 1.6 | 11.3 | 0.00 | 0.00 | 0.00 | 40 | 1015.9 |
| 20260901003045 | 30 | 265 | 1.6 | 11.3 | 0.00 | 0.00 | 0.00 | 39 | 1015.8 |
| 20260901002546 | 30 | 200 | 1.6 | 3.2 | 0.00 | 0.00 | 0.00 | 40 | 1015.8 |
| 20260901002044 | 30 | 201 | 1.6 | 6.4 | 0.00 | 0.00 | 0.00 | 40 | 1015.9 |
| 20260901001545 | 31 | 201 | 1.6 | 8.0 | 0.00 | 0.00 | 0.00 | 41 | 1015.9 |
| 20260901001042 | 31 | 168 | 1.6 | 8.0 | 0.00 | 0.00 | 0.00 | 41 | 1015.9 |
| 20260901000541 | 31 | 131 | 1.6 | 6.4 | 0.00 | 0.00 | 0.00 | 42 | 1015.9 |
| 20260901000044 | 31 | 131 | 1.6 | 6.4 | 0.00 | 0.00 | 0.00 | 43 | 1015.8 |
| 20260831235541 | 31 | 155 | 1.6 | 4.8 | 0.00 | 0.00 | 0.00 | 42 | 1015.9 |
| 20260831235039 | 31 | 127 | 1.6 | 4.8 | 0.00 | 0.00 | 0.00 | 42 | 1015.9 |
| 20260831234539 | 31 | 99 | 1.6 | 6.4 | 0.00 | 0.00 | 0.00 | 42 | 1016.0 |
| 20260831234034 | 31 | 70 | 3.2 | 6.4 | 0.00 | 0.00 | 0.00 | 42 | 1016.0 |
| 20260831233533 | 31 | 78 | 3.2 | 8.0 | 0.00 | 0.00 | 0.00 | 43 | 1016.1 |